sat.trackr.live / text

‹ back to catalog

STARLINK-37349

NORAD 68734 · 2026-082G

PAYLOAD ACTIVE UNKNOWN

§ Identity

Operator
Country
US
Launch date
2026-04-15
Launch site
AFWTR
Launch vehicle
Mass (kg)
RCS (m²)

Purposes: comms

External: N2YO · Heavens-Above · Gunter

§ Orbital elements

Epoch: 2026-05-25T02:39:44.544672Z

Period
92.62 min
Inclination
97.2851°
Eccentricity
0.0002673
Mean motion
15.54673429 rev/d
Perigee alt
401.3 km
Apogee alt
404.9 km
Semi-major
6,781.2 km
B*
5.2292e-4
RAAN
8.8178°
Arg perigee
61.4122°
Mean anomaly
298.7401°
Rev number
615

§ Raw data

STARLINK-373491 68734U 26082G   26145.11093223  .00034644  00000+0  52292-3 0  99982 68734  97.2851   8.8178 0002673  61.4122 298.7401 15.54673429  6157

JSON: /api/v1/satellites/68734 · /tle

For live sub-satellite position, see the globe view (requires WebGL).

§ Visibility from observer

Set your observer location to see the next 7 days of passes ≥ 10°. The values pass through the URL so the page stays shareable.

No JS? Fill the form by hand. The geolocation button needs JavaScript.